Back to catalog

STARLINK-5439

AliveCommunicationsVLEO
NORAD 54783·PAYLOAD·🇺🇸 United States

Launched Dec 17, 2022 from Cape Canaveral Space Force Station

Loading…

Next Passes (next 24 hours)

TLE

FreshSource: CelesTrak SupGP

Epoch: Sep 14, 2026, 13:44 UTC

1 54783C 22175AB  26257.57270833 -.00039486  00000+0 -12700-2 0  2571
2 54783  53.1574 247.4068 0001281  83.8570 225.6183 15.31714611    16

Track STARLINK-5439 in real time with AllMySat

Download on the App Store